Dewpoint
65 65 64 66 67 67 67 67 68 67 67 66 65 65 64 62 61 60 60 60 59 58
65 64 64 63 65 66 67 68 67 67 66 65 65 65 64 63 62 63 62 60 59 58
54 58 62 64 65 65 66 67 68 66 65 65 64 64 64 63 63 63 62 60 59 58
47 49 52 52 53 61 66 66 66 66 65 64 64 64 63 63 63 62 62 62 60 59
43 45 46 48 50 52 54 56 66 66 65 64 64 64 63 63 63 62 61 61 61 60
42 42 43 44 45 49 50 50 52 54 63 64 63 63 63 63 62 62 61 61 61 60
41 41 42 42 43 43 46 48 48 49 49 50 51 59 62 63 62 61 61 61 61 60
39 39 39 41 41 41 42 43 47 47 45 44 43 42 43 53 62 61 60 61 60 60
37 37 38 38 39 38 40 40 42 42 45 43 42 40 39 41 50 55 60 60 60 60
36 37 38 37 38 37 36 40 39 39 41 44 41 38 39 39 47 48 49 50 56 59
38 37 38 38 38 38 38 36 38 38 38 39 40 38 38 37 46 46 48 48 48 49
36 36 36 36 37 37 38 38 38 37 38 37 38 38 38 38 43 44 45 45 48 47
34 35 35 36 38 38 38 38 38 38 38 38 37 37 37 39 40 40 41 43 45 41
34 34 35 36 38 37 38 38 38 38 39 38 40 40 38 38 38 38 41 40 39 40
Lifted_Index
-5 -5 -4 -5 -6 -7 -7 -7 -6 -6 -6 -5 -4 -4 -3 -2 -1 0 -0 0 0 1
-5 -4 -4 -4 -5 -6 -7 -7 -6 -6 -5 -5 -4 -4 -3 -2 -1 -0 -0 -0 0 0
-3 -3 -3 -3 -4 -5 -6 -6 -6 -5 -5 -4 -4 -4 -3 -2 -1 -1 -1 -0 -0 -0
-1 -1 -2 -3 -3 -4 -5 -5 -5 -5 -4 -4 -4 -3 -3 -2 -2 -1 -1 -0 -0 -1
1 0 -1 -1 -2 -3 -3 -4 -4 -4 -4 -3 -3 -3 -3 -3 -2 -2 -1 -1 -1 -1
6 4 3 2 1 -0 -1 -2 -3 -3 -3 -3 -3 -3 -3 -3 -3 -2 -2 -1 -1 -1
11 10 9 8 6 5 3 1 -0 -2 -2 -3 -3 -3 -3 -3 -2 -2 -2 -2 -1 -1
14 14 13 13 12 11 9 7 5 2 -0 -2 -2 -2 -2 -2 -2 -1 -1 -1 -1 -1
17 16 16 16 16 15 13 12 10 8 4 1 0 -0 -0 -0 0 0 -0 -0 -1 -1
18 18 18 18 18 17 16 15 15 13 10 7 5 4 3 2 2 1 1 1 1 1
18 18 19 19 19 19 18 17 17 16 14 12 11 10 8 7 5 3 2 2 2 1
17 18 18 18 19 19 19 19 18 18 17 15 14 14 13 12 9 6 5 4 3 2
17 17 17 18 18 19 19 19 19 19 19 18 17 16 15 15 13 11 9 7 6 5
16 16 16 17 18 18 19 19 19 19 19 19 18 17 16 16 15 14 13 11 9 9